Total_Precipitation_Accumulation
0.00 0.00 0.00 0.00 0.00 0.00 0.00 0.00 0.00 0.00 0.00 0.00 0.00 0.00 0.00 0.00 0.00 0.00 0.00 0.00 0.00 0.00 0.01 0.01 0.01 0.01 0.02 0.03 0.03 0.04 0.05 0.05 0.07 0.10 0.11 0.14 0.17 0.18 0.19 0.24 0.37 0.50 0.50
0.00 0.00 0.00 0.00 0.00 0.00 0.00 0.00 0.00 0.00 0.00 0.00 0.00 0.00 0.00 0.00 0.00 0.00 0.00 0.00 0.00 0.00 0.00 0.00 0.00 0.01 0.01 0.01 0.01 0.02 0.02 0.02 0.02 0.04 0.07 0.06 0.08 0.13 0.13 0.13 0.21 0.33 0.40
0.00 0.00 0.00 0.00 0.00 0.00 0.00 0.00 0.00 0.00 0.00 0.00 0.00 0.00 0.00 0.00 0.00 0.00 0.00 0.00 0.00 0.00 0.00 0.00 0.00 0.00 0.00 0.01 0.01 0.01 0.02 0.02 0.02 0.04 0.07 0.06 0.04 0.07 0.06 0.08 0.13 0.16 0.19
0.00 0.00 0.00 0.00 0.00 0.00 0.00 0.00 0.00 0.00 0.00 0.00 0.00 0.00 0.00 0.00 0.00 0.00 0.00 0.00 0.00 0.00 0.00 0.00 0.00 0.01 0.01 0.01 0.01 0.01 0.02 0.03 0.03 0.03 0.04 0.04 0.03 0.04 0.03 0.02 0.03 0.03 0.04
0.00 0.00 0.00 0.00 0.00 0.00 0.00 0.00 0.00 0.00 0.00 0.00 0.00 0.00 0.00 0.00 0.00 0.00 0.00 0.00 0.00 0.00 0.00 0.00 0.01 0.01 0.01 0.02 0.02 0.02 0.03 0.04 0.05 0.05 0.05 0.05 0.04 0.03 0.04 0.02 0.02 0.03 0.03
0.00 0.00 0.00 0.00 0.00 0.00 0.00 0.00 0.00 0.00 0.00 0.00 0.00 0.00 0.00 0.00 0.00 0.00 0.00 0.00 0.01 0.01 0.00 0.01 0.01 0.01 0.02 0.02 0.03 0.04 0.05 0.05 0.06 0.07 0.06 0.06 0.06 0.05 0.05 0.04 0.02 0.02 0.03
0.00 0.00 0.00 0.00 0.00 0.00 0.00 0.00 0.00 0.00 0.00 0.00 0.00 0.00 0.00 0.00 0.00 0.00 0.00 0.01 0.02 0.02 0.01 0.01 0.02 0.02 0.03 0.04 0.06 0.08 0.08 0.08 0.09 0.08 0.08 0.08 0.08 0.07 0.07 0.07 0.04 0.02 0.01
0.00 0.00 0.00 0.00 0.00 0.00 0.00 0.00 0.00 0.00 0.00 0.00 0.00 0.00 0.00 0.00 0.00 0.00 0.01 0.01 0.03 0.02 0.02 0.02 0.02 0.03 0.04 0.06 0.08 0.10 0.11 0.12 0.12 0.11 0.10 0.10 0.08 0.08 0.08 0.07 0.07 0.06 0.03
0.00 0.00 0.00 0.00 0.00 0.00 0.00 0.00 0.00 0.00 0.00 0.00 0.00 0.00 0.00 0.00 0.00 0.00 0.01 0.01 0.01 0.01 0.02 0.03 0.05 0.06 0.06 0.07 0.09 0.11 0.12 0.14 0.15 0.15 0.15 0.15 0.13 0.11 0.10 0.09 0.09 0.09 0.07
0.00 0.00 0.00 0.00 0.00 0.00 0.00 0.00 0.00 0.00 0.00 0.00 0.00 0.00 0.00 0.00 0.00 0.00 0.01 0.01 0.01 0.02 0.02 0.04 0.07 0.09 0.11 0.12 0.12 0.13 0.13 0.13 0.14 0.16 0.19 0.21 0.22 0.20 0.16 0.13 0.10 0.10 0.09
0.00 0.00 0.00 0.00 0.00 0.00 0.00 0.00 0.00 0.00 0.00 0.00 0.00 0.00 0.00 0.00 0.01 0.02 0.02 0.03 0.03 0.03 0.05 0.06 0.08 0.10 0.13 0.17 0.20 0.20 0.19 0.18 0.17 0.17 0.19 0.21 0.23 0.26 0.25 0.22 0.17 0.12 0.11
0.00 0.00 0.00 0.00 0.00 0.00 0.00 0.01 0.01 0.01 0.00 0.00 0.00 0.00 0.00 0.01 0.02 0.04 0.06 0.06 0.06 0.07 0.09 0.11 0.12 0.14 0.16 0.19 0.24 0.28 0.27 0.29 0.28 0.25 0.24 0.25 0.26 0.28 0.29 0.28 0.25 0.20 0.14
0.00 0.00 0.00 0.00 0.00 0.01 0.01 0.02 0.02 0.01 0.00 0.00 0.00 0.00 0.00 0.01 0.03 0.06 0.10 0.15 0.18 0.21 0.22 0.24 0.26 0.28 0.29 0.32 0.34 0.39 0.45 0.47 0.46 0.44 0.42 0.37 0.33 0.33 0.32 0.33 0.32 0.27 0.20
0.00 0.00 0.00 0.00 0.01 0.01 0.02 0.02 0.01 0.01 0.01 0.00 0.00 0.00 0.01 0.04 0.06 0.09 0.15 0.24 0.34 0.40 0.45 0.48 0.48 0.48 0.48 0.54 0.60 0.60 0.58 0.60 0.62 0.62 0.62 0.58 0.50 0.43 0.38 0.35 0.33 0.32 0.28
0.00 0.00 0.00 0.01 0.02 0.02 0.02 0.02 0.01 0.01 0.01 0.01 0.01 0.02 0.05 0.10 0.17 0.19 0.23 0.30 0.39 0.47 0.51 0.51 0.51 0.49 0.53 0.66 0.73 0.65 0.54 0.53 0.56 0.59 0.61 0.64 0.66 0.62 0.53 0.47 0.38 0.32 0.32
0.00 0.01 0.01 0.02 0.03 0.03 0.03 0.02 0.02 0.03 0.02 0.02 0.03 0.06 0.11 0.18 0.25 0.29 0.32 0.39 0.44 0.47 0.46 0.46 0.44 0.41 0.42 0.57 0.61 0.48 0.34 0.34 0.40 0.46 0.47 0.49 0.55 0.56 0.57 0.56 0.49 0.44 0.39
0.01 0.01 0.03 0.03 0.04 0.04 0.04 0.04 0.03 0.03 0.02 0.04 0.06 0.10 0.13 0.17 0.20 0.23 0.27 0.32 0.30 0.26 0.28 0.33 0.31 0.28 0.28 0.41 0.46 0.30 0.13 0.12 0.17 0.24 0.30 0.32 0.36 0.39 0.40 0.39 0.36 0.41 0.46
0.04 0.04 0.04 0.04 0.03 0.03 0.03 0.03 0.02 0.01 0.02 0.04 0.07 0.10 0.12 0.16 0.14 0.13 0.16 0.19 0.16 0.15 0.18 0.19 0.15 0.11 0.11 0.25 0.36 0.22 0.05 0.05 0.08 0.15 0.20 0.21 0.24 0.27 0.29 0.30 0.29 0.31 0.41
0.04 0.04 0.04 0.03 0.02 0.02 0.02 0.02 0.01 0.01 0.02 0.04 0.05 0.07 0.10 0.14 0.11 0.09 0.10 0.12 0.12 0.11 0.10 0.09 0.06 0.03 0.03 0.17 0.36 0.24 0.03 0.03 0.06 0.13 0.19 0.16 0.14 0.18 0.15 0.21 0.26 0.25 0.32
0.02 0.03 0.02 0.01 0.01 0.01 0.01 0.01 0.00 0.00 0.01 0.02 0.03 0.03 0.04 0.06 0.04 0.02 0.02 0.03 0.04 0.05 0.04 0.02 0.01 0.00 0.01 0.09 0.34 0.33 0.05 0.04 0.06 0.10 0.16 0.21 0.13 0.11 0.08 0.12 0.18 0.19 0.23
0.01 0.01 0.01 0.01 0.00 0.00 0.00 0.00 0.00 0.00 0.00 0.00 0.00 0.00 0.00 0.00 0.00 0.00 0.00 0.01 0.01 0.01 0.01 0.01 0.00 0.00 0.01 0.03 0.21 0.41 0.20 0.08 0.06 0.08 0.15 0.18 0.12 0.07 0.06 0.06 0.10 0.14 0.11
0.00 0.00 0.00 0.00 0.00 0.00 0.00 0.00 0.00 0.00 0.00 0.00 0.00 0.00 0.00 0.00 0.00 0.00 0.00 0.00 0.01 0.01 0.01 0.01 0.01 0.00 0.00 0.02 0.11 0.24 0.33 0.20 0.08 0.10 0.10 0.11 0.07 0.04 0.03 0.02 0.03 0.03 0.03
0.00 0.00 0.00 0.00 0.00 0.00 0.00 0.00 0.00 0.00 0.00 0.00 0.00 0.00 0.00 0.00 0.00 0.01 0.01 0.01 0.01 0.02 0.04 0.03 0.02 0.01 0.01 0.03 0.07 0.08 0.12 0.17 0.13 0.21 0.19 0.05 0.01 0.00 0.00 0.00 0.00 0.00 0.01
0.00 0.00 0.00 0.00 0.00 0.00 0.00 0.00 0.00 0.00 0.00 0.00 0.00 0.00 0.00 0.00 0.00 0.00 0.01 0.01 0.03 0.09 0.13 0.08 0.04 0.03 0.03 0.06 0.11 0.06 0.04 0.06 0.08 0.12 0.12 0.03 0.00 0.00 0.00 0.00 0.00 0.00 0.00
0.00 0.00 0.00 0.00 0.00 0.00 0.00 0.00 0.00 0.00 0.00 0.00 0.00 0.00 0.00 0.00 0.01 0.00 0.01 0.02 0.04 0.16 0.22 0.13 0.11 0.09 0.10 0.16 0.18 0.14 0.14 0.14 0.11 0.05 0.03 0.01 0.00 0.00 0.00 0.00 0.00 0.00 0.00
0.00 0.00 0.00 0.00 0.00 0.00 0.00 0.00 0.00 0.00 0.00 0.00 0.00 0.01 0.01 0.01 0.01 0.01 0.01 0.01 0.03 0.07 0.08 0.08 0.11 0.12 0.17 0.16 0.11 0.10 0.14 0.14 0.10 0.03 0.01 0.01 0.00 0.00 0.00 0.00 0.00 0.00 0.00